This is the latest recevied weather packets stored in our database for station/object KI4KWR-1. If no packets are shown the sender has not sent any weather packets the latest 10 day(s).
| Time | Temp. | Humidity | Pressure | Rain* | Wind** | Luminosity | Snow |
|---|---|---|---|---|---|---|---|
| 1788626704 | 35° C | 52% | 985.7 hPa | 0 mm | - | - | - |
| 1788625804 | 33.33° C | 56% | 985.8 hPa | 0 mm | - | - | - |
| 1788624904 | 31.67° C | 63% | 986 hPa | 0 mm | - | - | - |
| 1788624003 | 31.67° C | 65% | 986.1 hPa | 0 mm | - | - | - |
| 1788623103 | 30° C | 71% | 986.1 hPa | 0 mm | - | - | - |
| 1788622204 | 28.33° C | 76% | 986 hPa | 0 mm | - | - | - |
| 1788621303 | 26.67° C | 92% | 986.1 hPa | 0 mm | - | - | - |
| 1788620403 | 26.11° C | 91% | 986.1 hPa | 0 mm | - | - | - |
| 1788619504 | 30.56° C | 64% | 986.3 hPa | 0 mm | - | - | - |
| 1788618604 | 29.44° C | 68% | 986.3 hPa | 0 mm | - | - | - |
| 1788617704 | 28.33° C | 72% | 986.5 hPa | 0 mm | - | - | - |
| 1788616803 | 27.78° C | 76% | 986.5 hPa | 0 mm | - | - | - |
| 1788615903 | 26.67° C | 78% | 986.5 hPa | 0 mm | - | - | - |
| 1788615004 | 26.11° C | 82% | 986.5 hPa | 0 mm | - | - | - |
| 1788614103 | 25.56° C | 83% | 986.5 hPa | 0 mm | - | - | - |
| 1788613203 | 25° C | 87% | 986.5 hPa | 0 mm | - | - | - |
| 1788612304 | 24.44° C | 89% | 986.5 hPa | 0 mm | - | - | - |
| 1788611403 | 23.33° C | 91% | 986.2 hPa | 0 mm | - | - | - |
| 1788610503 | 22.22° C | 92% | 986.1 hPa | 0 mm | - | - | - |
| 1788609604 | 21.67° C | 92% | 986.1 hPa | 0 mm | - | - | - |
| 1788608703 | 21.67° C | 92% | 986 hPa | 0 mm | - | - | - |
| 1788607803 | 21.67° C | 92% | 985.8 hPa | 0 mm | - | - | - |
| 1788606904 | 21.67° C | 92% | 985.5 hPa | 0 mm | - | - | - |
| 1788606004 | 21.67° C | 92% | 985.4 hPa | 0 mm | - | - | - |
| 1788605104 | 21.67° C | 92% | 985.2 hPa | 0 mm | - | - | - |
* Rain latest hour (hover to see other rain measurements)
** Current wind speed in m/s (hover to see current wind gust speed)